Flag for Vietnam Weather past 2 weeks in Ho Chi Minh, Vietnam

Now
81 °F

Partly cloudy.


Feels Like: 86 °F
Forecast: 78 / 86 °F
Wind: 6 mph from Southwest

Location: Ho Chi Minh

Current Time: Aug 1, 2014 at 1:07:43 AM

Latest Report: Aug 1, 2014 at 12:30 AM


Visibility: N/A

Pressure: 29.74 "Hg

Humidity: 84%

Dew point: 75 °F

Location of Ho Chi MinhLocation

Historic Weather in Ho Chi Minh — Graph

°F

Ho Chi Minh temperature yesterday

Maximum temperature yesterday: 82 °F (at 8:30 AM)
Minimum temperature yesterday: 77 °F (at 12:00 AM)
Average temperature yesterday: 79 °F

Past Weeks' High & Low Weather Summary

 TemperatureHumidityPressure
High91 °F (Jul 17, 12:30 PM)100% (Jul 16, 11:00 PM)29.86 "Hg (Jul 16, 11:00 PM)
Low73 °F (Jul 18, 12:30 PM)56% (Jul 20, 1:00 PM)29.62 "Hg (Jul 17, 2:30 PM)
Average80 °F90%29.76 "Hg
* Reported Jul 16 11:00 PM — Jul 31 11:30 PM, Ho Chi Minh, Weather by CustomWeather, © 2014

Note: Actual official high and low records may vary slightly from our data, if they occured in-between our weather recording intervals... More about our weather records

Advertising

Ho Chi Minh weather history for previous 24 hours

 ConditionsComfort  
Time TempWeatherWind HumidityBarometerVisibility
11:30 PM
Jul 31
81 °FPassing clouds.7 mph84%29.77 "HgN/A
11:00 PM81 °FPassing clouds.7 mph84%29.77 "Hg5 mi
10:30 PM81 °FPassing clouds.7 mph84%29.77 "HgN/A
10:00 PM81 °FPassing clouds.9 mph84%29.77 "Hg6 mi
9:30 PM81 °FPassing clouds.7 mph84%29.77 "Hg5 mi
9:00 PM81 °FPassing clouds.6 mph84%29.74 "Hg6 mi
8:30 PM81 °FPassing clouds.7 mph84%29.74 "HgN/A
8:00 PM81 °FPassing clouds.6 mph84%29.74 "HgN/A
7:30 PM81 °FMostly cloudy.5 mph84%29.74 "Hg6 mi
7:00 PM81 °FMostly cloudy.5 mph84%29.71 "HgN/A
6:30 PM81 °FMostly cloudy.3 mph84%29.71 "HgN/A
6:00 PM81 °FMore clouds than sun.5 mph84%29.71 "HgN/A
5:30 PM81 °FMostly cloudy.6 mph84%29.68 "HgN/A
5:00 PM81 °FMostly cloudy.7 mph84%29.68 "HgN/A
4:30 PM81 °FMostly cloudy.6 mph84%29.68 "HgN/A
4:00 PM81 °FMostly cloudy.6 mph84%29.68 "HgN/A
3:30 PM81 °FMostly cloudy.8 mph84%29.71 "HgN/A
3:00 PM81 °FLight rain. More clouds than sun.6 mph84%29.68 "HgN/A
2:30 PM81 °FMore clouds than sun.7 mph84%29.71 "HgN/A
2:00 PM81 °FMore clouds than sun.10 mph79%29.71 "HgN/A
1:30 PM81 °FMore clouds than sun.9 mph84%29.71 "HgN/A
1:00 PM79 °FMore clouds than sun.7 mph89%29.74 "HgN/A
12:30 PM79 °FLight rain. More clouds than sun.6 mph89%29.74 "HgN/A
12:00 PM79 °FLight rain. More clouds than sun.5 mph89%29.77 "Hg5 mi
11:30 AM77 °FLight rain. More clouds than sun.7 mph89%29.77 "Hg4 mi
11:00 AM77 °FThunderstorms. Broken clouds.8 mph94%29.77 "Hg4 mi
10:30 AM77 °FStrong thunderstorms. Broken clouds.17 mph89%29.77 "Hg1 mi
9:30 AM82 °FRain. More clouds than sun.9 mph84%29.77 "Hg2 mi
9:00 AM82 °FBroken clouds.8 mph89%29.77 "HgN/A
8:30 AM82 °FFog.7 mph84%29.77 "Hg3 mi
8:00 AM81 °FFog.3 mph89%29.77 "Hg3 mi
7:30 AM81 °FFog.2 mph89%29.74 "Hg3 mi
6:30 AM77 °FPartly sunny.1 mph94%29.74 "Hg4 mi
6:00 AM77 °FPartly sunny.1 mph94%29.71 "Hg4 mi
5:30 AM77 °FPartly cloudy.1 mph94%29.74 "Hg5 mi
5:00 AM77 °FPartly cloudy.1 mph94%29.74 "Hg5 mi
4:30 AM77 °FPartly cloudy.2 mph94%29.74 "Hg5 mi
4:00 AM77 °FMostly cloudy.3 mph94%29.74 "Hg5 mi
3:30 AM77 °FLight rain. Mostly cloudy.3 mph94%29.74 "Hg5 mi
3:00 AM77 °FLight rain. Mostly cloudy.3 mph89%29.74 "Hg5 mi
2:30 AM77 °FLight rain. Mostly cloudy.2 mph94%29.74 "Hg5 mi
2:00 AM77 °FLight rain. Mostly cloudy.No wind89%29.74 "Hg5 mi
1:30 AM77 °FLight rain. Mostly cloudy.1 mph89%29.74 "Hg5 mi
Weather by CustomWeather, © 2014

See weather overviewHow to use our weather pages